Fanny Island, British Columbia

10:39 AM PDT on September 20, 2017 (GMT -0700)
Fanny Island

Weather History for CXFA - March, 2014

Change the Weather History Date:

Monday, March 3, 2014

  Actual Average Record
Temperature  
Mean Temperature 36 °F -  
Max Temperature 39 °F - - ()
Min Temperature 32 °F - - ()
Degree Days  
Heating Degree Days 30    
Moisture  
Dew Point 28 °F    
Average Humidity 71    
Maximum Humidity 91    
Minimum Humidity 49    
Precipitation  
Precipitation 0.01 in - - ()
Sea Level Pressure  
Sea Level Pressure 29.72 in    
Wind  
Wind Speed 10 mph ()    
Max Wind Speed 28 mph    
Max Gust Speed 30 mph    
T = Trace of Precipitation, MM = Missing Value Source: Averaged Metar Reports

Daily Weather History Graph

Daily Weather History Graph

Search for Another Location

Airport or City:

Trip Planner

Search our weather history database for the weather conditions in past years. The results will help you decide how hot, cold, wet, or windy it might be!

Date:

Astronomy

Mar. 03, 2014 Rise Set
Actual Time 7:03 AM PST 6:09 PM PST
Civil Twilight 6:30 AM PST 6:41 PM PST
Nautical Twilight 5:52 AM PST 7:19 PM PST
Astronomical Twilight 5:14 AM PST 7:57 PM PST
Moon 7:55 AM PST (3/3) 9:42 PM PST (3/3)
Length of Visible Light 12h 11m
Length of Day
11h 06m
Waxing Crescent, 8% of the Moon is Illuminated
Mar 3
Waxing Crescent
Mar 8
First Quarter
Mar 16
Full
Mar 23
Last Quarter
Mar 30
New

Hourly Weather History & Observations

Time (PST) Temp. Windchill Dew Point Humidity Pressure Visibility Wind Dir Wind Speed Gust Speed Precip Events Conditions
12:00 AM 35.2 °F 29.5 °F 30.6 °F 83% 29.63 in - ENE 6.9 mph - N/A   Unknown
1:00 AM 34.0 °F 28.8 °F 29.3 °F 83% 29.65 in - NNW 5.8 mph - N/A   Unknown
2:00 AM 33.6 °F 29.4 °F 31.3 °F 91% 29.67 in - North 4.6 mph - N/A   Unknown
3:00 AM 34.2 °F 29.0 °F 30.9 °F 88% 29.67 in - North 5.8 mph - 0.01 in   Unknown
4:00 AM 35 °F - 31 °F 78% 29.66 in - NNE 4.6 mph - -  
4:00 AM 34.5 °F 30.4 °F 30.6 °F 85% 29.66 in - North 4.6 mph - N/A   Unknown
5:00 AM 34.0 °F 29.8 °F 29.7 °F 84% 29.66 in - NNE 4.6 mph - N/A   Unknown
6:00 AM 34.5 °F 27.9 °F 30.4 °F 85% 29.66 in - NNW 8.1 mph - N/A   Unknown
7:00 AM 34.2 °F 26.2 °F 30.4 °F 86% 29.65 in - NNW 10.4 mph 18.4 mph 0.01 in   Unknown
8:00 AM 34.5 °F 26.7 °F 28.9 °F 80% 29.65 in - NNW 10.4 mph - N/A   Unknown
9:00 AM 34.9 °F 26.6 °F 28.6 °F 78% 29.66 in - NNW 11.5 mph 18.4 mph N/A   Unknown
10:00 AM 37 °F - 28 °F 59% 29.66 in - NW 21.9 mph - -  
10:00 AM 37.4 °F 26.4 °F 27.7 °F 68% 29.66 in - NW 23.0 mph - N/A   Unknown
11:00 AM 37.4 °F 25.9 °F 28.8 °F 71% 29.67 in - WNW 25.3 mph - N/A   Unknown
12:00 PM 37.6 °F 26.1 °F 31.1 °F 77% 29.69 in - WNW 25.3 mph - N/A   Unknown
1:00 PM 37.2 °F 25.2 °F 32.0 °F 81% 29.70 in - West 27.6 mph - N/A   Unknown
2:00 PM 37.4 °F 25.6 °F 29.8 °F 74% 29.72 in - WNW 26.5 mph - N/A   Unknown
3:00 PM 37.4 °F 26.4 °F 25.9 °F 63% 29.74 in - West 23.0 mph 29.9 mph N/A   Unknown
4:00 PM 38 °F - 26 °F 50% 29.74 in - West 19.6 mph - -  
4:00 PM 38.1 °F 28.4 °F 25.9 °F 61% 29.74 in - West 18.4 mph - N/A   Unknown
5:00 PM 38.3 °F 28.4 °F 23.9 °F 56% 29.75 in - West 19.6 mph - N/A   Unknown
6:00 PM 38.8 °F 30.0 °F 23.7 °F 55% 29.78 in - West 16.1 mph - N/A   Unknown
7:00 PM 38.7 °F 30.9 °F 22.5 °F 52% 29.81 in - West 12.7 mph - N/A   Unknown
8:00 PM 38.3 °F 32.5 °F 22.8 °F 54% 29.82 in - NW 8.1 mph - N/A   Unknown
9:00 PM 38.3 °F 33.2 °F 24.3 °F 57% 29.84 in - WNW 6.9 mph - N/A   Unknown
10:00 PM 38 °F - 26 °F 49% 29.86 in - NNW 5.8 mph - -  
10:00 PM 37.8 °F 33.3 °F 25.7 °F 62% 29.86 in - North 5.8 mph - N/A   Unknown
11:00 PM 37.2 °F - 26.6 °F 65% 29.88 in - East 1.2 mph - N/A   Unknown